Weather in Kaka

Turkmenistan     37°20′39″N   59°37′03″E
temp.,
°C
wind,
m/s
gust,
m/s
humid.,
%
clouds,
%
prec.,
mm/h
press.,
hPa
HPBL,
m
12 august, fri
fri1223:00+26wnw22240 0.0 101315
02:00+25wsw22250 0.0 101213
05:00+23wsw22280 0.0 101218
08:00+25wsw33240 0.0 1013359
11:00+28n23190 0.0 10132000
14:00+30n23160 0.0 10112258
17:00+32nnw23160 0.0 10102485
20:00+30wnw22180 0.0 101020
13 august, sat
sat1323:00+28wsw33210 0.0 101128
02:00+27wsw33230 0.0 101016
05:00+25wsw33250 0.0 101119
08:00+27wsw22220 0.0 1011172
11:00+30n33170 0.0 10112007
14:00+33nne44150 0.0 10092544
17:00+33nnw44130 0.0 10082756
20:00+31nw33150 0.0 100835
14 august, sun
sun1423:00+28w22180 0.0 100921
02:00+27wsw33190 0.0 100717
05:00+26sw44210 0.0 100736
08:00+28w24190 0.0 1008167
11:00+32nnw55160 0.0 10081813
14:00+34n44150 0.0 10072740
17:00+34nnw44140 0.0 10062945
20:00+31nw45160 0.0 100798
15 august, mon
mon1523:00+29w33180 0.0 100821
02:00+28wsw33190 0.0 100713
05:00+26wsw22220 0.0 100713
08:00+28w12190 0.0 1009114
11:00+32nnw12160 0.0 10082246
14:00+35nne33140 0.0 10072889
17:00+35n55120 0.0 10062947
20:00+32n36150 0.0 1008116
16 august, tue
tue1623:00+30w33170 0.0 100928
02:00+28wsw33190 0.0 100920
05:00+27sw43190 0.0 100827
08:00+29w23170 0.0 1010128
11:00+33nnw44150 0.0 10101848
14:00+35n65140 0.0 10092874
17:00+35nnw66140 0.0 10083100
20:00+32nnw48160 0.0 1009171